Wind_Speed
15 13 12 13 15 22 27 24 19 13 10 16 23 21 17 16 13 10 7 14 21 20 18 21 26 30 32 29 27 29 28 25 22 23 23 23 23 24 25 23 22 20 18 17 16 17 18 20 21 22 24 23 21 23 26 26 24 23 24 25 24 23 22 21 21 20 18 18 17 16 15 14 14 14 13 12 13 14 15 16 16 15 14 14 14 14 14
14 11 10 10 12 19 23 24 23 21 15 12 15 17 16 13 11 12 11 14 17 19 20 22 25 28 29 27 25 30 32 28 25 26 25 24 25 26 25 24 21 18 16 14 14 15 17 20 21 22 23 20 19 22 24 22 20 20 22 23 21 21 21 21 21 21 20 19 17 14 12 10 9 9 9 10 11 12 13 13 12 11 11 11 12 12 12
14 11 8 7 10 14 18 21 23 24 19 12 10 13 15 14 9 10 15 18 17 19 20 21 24 24 24 23 23 28 33 33 29 26 26 25 26 27 26 23 21 18 15 14 12 14 17 20 21 22 22 19 18 19 20 19 19 19 20 20 19 20 22 23 23 22 20 17 14 10 8 7 7 7 7 7 8 8 9 9 9 8 9 10 11 11 11
9 7 5 3 9 12 14 19 24 24 19 13 9 11 14 16 12 11 18 22 20 19 19 19 22 23 23 23 23 26 32 33 29 26 26 26 26 27 25 23 21 18 15 14 13 13 17 21 21 21 21 20 20 20 19 18 19 19 19 20 21 23 24 23 21 17 15 13 11 9 7 8 8 8 7 7 7 6 7 7 7 8 9 9 10 10 11
3 2 3 3 7 9 10 17 24 24 20 14 11 11 13 16 16 13 15 18 19 19 18 18 19 20 22 22 21 21 25 29 29 27 26 26 26 27 25 23 20 18 16 15 14 15 18 21 22 21 22 24 26 23 19 18 19 19 20 22 24 23 22 20 16 13 12 13 12 10 10 10 9 9 8 7 6 5 6 7 7 8 9 9 9 10 10
5 4 6 4 4 6 7 13 19 21 21 18 15 15 13 14 18 16 12 15 20 20 17 16 16 16 18 19 17 16 18 22 26 27 25 25 26 26 25 22 20 19 17 15 15 17 19 20 21 22 24 26 26 21 17 18 19 19 20 22 22 19 19 19 17 14 14 14 12 11 11 10 9 8 8 6 5 6 7 7 8 8 8 8 9 10 10
7 7 9 5 3 5 7 10 13 15 17 17 16 16 12 11 15 17 15 16 20 20 16 13 12 12 13 16 15 13 13 15 18 20 21 22 22 22 21 20 20 20 18 16 16 19 21 21 22 23 23 22 20 18 18 20 21 21 21 21 20 18 19 19 17 15 14 13 12 12 11 9 8 8 7 6 7 7 7 7 7 7 8 8 8 9 8
5 5 6 4 3 6 9 7 8 11 14 14 15 14 11 12 15 16 16 15 15 18 19 18 15 13 13 14 14 13 14 14 15 15 14 14 16 18 20 21 21 20 17 16 18 20 22 22 23 23 21 19 18 19 21 22 22 23 22 20 20 20 20 18 16 15 15 14 13 13 11 9 8 7 7 8 8 8 7 7 7 7 7 7 7 7 5
4 4 6 6 6 7 8 5 4 9 12 14 16 13 10 13 16 14 15 16 13 16 21 21 18 15 15 16 16 15 14 15 16 14 11 9 11 16 20 22 21 19 18 18 20 22 23 23 23 22 20 18 19 21 22 24 26 27 23 20 20 20 19 17 15 15 14 14 13 12 10 8 8 8 8 8 8 7 6 6 6 5 6 6 5 5 4
4 5 6 5 3 3 4 3 3 6 9 11 16 14 8 11 16 15 14 16 15 17 23 23 20 18 17 17 15 14 13 16 17 15 12 10 10 12 18 22 22 20 21 21 21 22 22 21 21 21 19 18 19 20 20 21 24 25 23 20 18 18 16 14 13 13 13 13 12 11 9 9 9 8 8 8 7 6 5 4 4 4 4 5 4 4 5
4 4 4 3 2 1 2 2 2 4 5 7 11 12 9 10 14 15 14 16 17 21 25 24 20 19 18 15 13 12 12 15 17 16 13 12 11 10 14 20 25 26 26 25 24 23 22 21 21 21 19 18 18 17 15 14 17 20 20 17 15 14 12 12 12 13 13 12 11 10 9 9 8 8 7 7 6 5 4 3 3 3 4 4 5 6 5
5 5 4 2 2 2 1 1 1 2 2 4 7 8 9 11 11 11 13 17 19 23 26 24 20 18 15 12 12 12 12 13 16 17 15 13 12 12 12 16 22 27 28 27 25 24 23 22 21 20 18 18 16 15 14 12 13 16 16 13 11 11 11 12 13 13 12 10 10 10 9 8 8 7 7 6 6 5 4 3 3 4 4 5 7 6 4
2 4 4 2 2 2 1 1 2 2 2 5 8 8 10 13 11 8 11 16 20 23 24 22 19 17 15 13 13 13 11 11 12 14 14 13 13 14 15 17 19 23 26 25 24 22 21 21 20 18 18 17 16 15 15 12 11 12 12 10 9 10 11 12 11 11 10 10 10 9 8 7 7 7 8 7 6 4 4 5 5 4 5 7 7 6 4
3 2 3 3 2 2 2 2 3 4 4 6 10 12 13 13 11 9 10 14 19 22 21 19 15 14 14 15 17 17 14 11 9 9 10 11 13 17 20 21 20 21 22 23 21 20 22 23 21 20 20 18 16 16 15 12 11 10 9 8 9 10 10 10 10 10 10 9 9 8 7 7 7 7 7 6 5 5 6 6 5 6 8 8 7 6 5
6 3 1 2 2 3 4 4 4 5 6 6 8 13 17 17 15 13 11 11 15 19 21 19 16 14 14 15 18 19 16 12 10 8 8 9 12 17 21 20 18 18 20 20 20 21 25 24 22 21 20 18 16 16 14 11 9 9 9 9 10 10 10 10 10 10 10 9 8 7 7 8 7 7 6 6 6 7 6 5 7 9 9 8 7 6 5
8 7 5 4 4 4 5 5 5 5 7 8 9 11 15 18 18 17 14 12 13 15 17 18 17 15 15 16 18 18 18 15 12 10 9 9 11 15 19 20 20 23 26 25 24 25 26 24 22 21 19 16 15 15 13 10 9 9 10 11 10 10 10 10 10 10 10 9 9 9 9 8 7 6 6 6 6 5 5 8 10 11 9 8 7 6 4
8 6 5 5 5 4 3 4 5 6 7 10 12 12 14 16 18 18 16 14 13 13 14 15 16 15 16 16 17 18 18 16 14 12 11 10 11 15 20 21 23 28 31 28 26 26 25 23 22 20 17 15 15 14 12 9 9 10 11 11 11 11 11 11 11 10 10 9 9 9 9 8 7 6 6 5 5 6 9 11 12 10 9 8 7 5 4
8 6 4 4 5 6 6 5 6 8 9 10 12 13 14 15 16 16 16 15 13 13 13 15 15 14 15 16 16 17 17 16 15 15 14 13 13 16 20 22 23 25 27 26 24 25 25 24 22 19 17 17 16 14 11 10 10 11 12 12 13 12 12 11 12 11 10 9 9 8 7 7 7 6 5 6 7 9 11 12 11 9 8 7 6 5 3
8 8 8 7 5 6 8 8 8 10 10 10 12 13 13 14 15 15 15 13 13 13 13 14 15 15 15 15 15 15 15 15 15 16 16 17 16 15 20 24 25 26 28 28 27 26 25 23 20 18 19 19 16 14 12 11 12 13 14 14 14 13 12 13 13 11 10 9 8 7 7 6 6 6 7 9 11 12 12 10 9 9 8 8 6 5 3
7 8 9 11 9 8 9 9 10 10 10 11 12 12 12 12 12 13 13 11 12 14 15 16 16 16 16 16 15 15 15 15 15 16 16 18 16 15 19 25 27 27 28 29 28 26 23 20 19 20 20 18 15 14 13 12 13 15 16 16 15 14 14 14 13 11 10 9 8 8 8 8 7 8 10 13 14 14 12 11 10 10 9 7 6 5 4
8 7 9 12 12 12 12 11 11 11 10 10 11 12 11 9 8 9 9 9 12 16 19 21 21 18 16 16 15 15 15 14 15 16 17 17 15 15 20 25 28 27 26 25 25 24 21 20 20 19 17 16 14 13 13 14 15 16 17 16 16 15 15 14 12 11 11 10 9 9 9 9 9 11 14 16 16 15 13 12 10 9 8 7 6 5 4
9 9 10 12 12 12 12 11 11 11 10 9 9 9 9 8 6 6 7 8 11 15 17 19 19 17 14 14 14 15 15 15 15 16 17 16 15 16 19 24 28 28 24 22 22 23 21 20 20 18 16 16 14 14 14 15 16 17 17 16 16 15 15 14 12 12 11 11 10 10 10 11 12 14 16 17 17 15 13 11 9 8 7 7 6 5 4
12 12 12 12 12 12 11 10 10 11 10 9 8 7 7 7 7 7 7 7 10 12 13 14 14 13 12 13 13 14 15 16 16 16 16 15 15 16 18 22 25 27 25 23 23 23 22 22 20 19 18 16 14 14 14 14 16 17 16 16 15 15 14 14 13 12 11 11 11 11 12 13 14 16 17 16 14 12 11 10 9 9 8 7 6 5 4
13 13 14 13 13 12 11 10 11 12 12 10 9 8 7 7 7 7 8 8 8 10 11 12 13 13 13 13 13 14 15 17 17 17 16 16 16 16 17 19 23 25 26 25 24 23 22 22 20 18 16 14 13 13 13 14 16 17 16 16 16 15 14 14 13 12 11 11 12 12 12 14 16 17 17 15 11 10 9 9 9 9 8 7 6 5 4
13 13 14 14 15 14 13 12 13 14 14 14 13 11 9 8 7 8 9 9 9 9 10 10 12 14 15 15 15 15 16 17 18 17 17 17 17 16 16 18 22 24 24 25 25 25 22 20 18 16 14 13 12 13 14 15 17 17 17 16 16 16 14 13 12 12 12 12 12 12 12 14 16 17 16 14 12 10 8 8 8 8 8 7 6 5 4
12 12 12 13 13 13 12 13 14 15 15 16 15 13 11 9 8 8 9 10 11 11 11 10 11 13 14 14 15 17 18 19 19 19 18 18 18 18 17 18 20 22 22 23 25 25 24 21 18 15 13 12 13 14 15 16 17 18 18 17 17 15 14 13 13 12 12 12 12 12 13 16 18 17 15 14 13 11 10 9 8 8 7 6 6 5 4
13 13 12 11 12 12 12 13 13 14 14 15 16 15 13 10 8 8 8 10 11 12 13 13 12 12 13 13 14 15 17 17 18 19 19 19 19 19 18 18 18 19 20 20 21 22 24 22 18 16 14 13 13 15 16 16 18 19 18 18 17 16 15 15 15 14 13 12 12 14 16 19 19 17 15 13 12 11 11 10 9 8 7 6 5 4 4
12 12 12 12 12 12 12 12 12 12 13 14 16 16 15 12 10 8 7 8 9 11 12 14 13 13 14 14 13 13 14 15 16 17 18 18 19 20 20 20 19 19 19 19 19 21 24 23 19 16 15 14 15 16 16 17 19 20 18 17 17 16 16 16 15 14 14 14 14 16 19 20 19 17 15 13 11 11 10 10 9 8 7 6 5 5 4
12 12 12 13 13 13 12 12 12 13 14 15 16 16 15 13 12 10 8 8 8 8 9 11 12 13 14 15 14 14 14 14 14 15 16 17 20 21 21 20 20 20 20 21 21 23 26 25 21 17 16 15 16 17 17 18 19 19 18 17 16 16 16 15 15 15 16 16 17 19 21 21 19 16 15 13 12 11 11 10 9 8 7 7 6 5 4
12 12 12 13 14 14 14 14 14 15 16 16 16 15 14 13 12 11 10 9 8 8 9 10 11 12 13 14 15 14 15 15 13 14 16 18 20 22 22 21 21 22 23 23 23 24 29 30 26 21 17 16 16 17 17 18 19 19 18 17 16 15 15 16 16 16 17 18 19 21 22 21 18 16 15 13 13 12 11 10 10 8 7 7 5 5 4
12 13 13 14 14 14 15 15 15 16 16 17 16 15 14 13 13 12 11 10 10 10 10 10 10 10 11 12 14 14 14 14 13 13 16 20 23 25 25 24 23 22 23 23 24 26 30 30 25 21 18 17 16 16 17 18 19 19 18 18 17 17 17 17 17 17 18 19 21 22 22 20 18 16 15 14 13 12 11 11 10 9 8 7 5 4 4
10 11 14 15 16 15 16 16 16 16 15 16 16 15 14 14 14 13 12 11 11 11 11 11 11 11 11 12 13 13 13 13 14 15 16 20 25 28 28 27 25 23 23 25 26 27 29 27 23 20 20 19 17 17 17 18 18 18 18 18 17 17 18 18 18 18 19 20 22 22 21 19 17 16 15 14 14 13 12 11 10 9 8 7 5 4 4
8 10 12 14 15 15 15 16 15 13 13 14 14 14 14 14 14 13 12 11 11 11 11 11 11 11 12 11 10 10 12 15 16 16 15 20 26 30 31 30 27 26 26 28 29 29 30 29 26 23 23 21 19 18 18 18 18 18 18 18 18 17 18 18 18 19 20 21 22 22 20 18 17 16 15 15 14 13 12 11 10 9 8 7 6 5 4
7 9 10 12 12 13 14 15 14 12 11 11 12 12 13 13 13 12 12 11 10 10 11 12 12 12 12 11 11 13 17 19 18 15 14 18 24 28 32 32 30 28 28 30 31 32 32 31 28 27 25 23 21 21 20 19 18 19 19 19 18 17 17 18 18 19 21 22 22 21 19 18 18 17 16 16 15 14 13 11 10 9 8 7 7 6 5
7 8 10 11 13 13 14 15 15 14 13 11 11 11 12 13 12 12 12 12 12 12 12 12 13 13 13 12 12 14 15 16 14 13 13 14 19 25 29 31 30 29 29 32 34 35 34 31 30 29 28 25 23 22 21 19 19 20 20 19 17 16 16 17 18 19 21 22 22 21 19 19 18 18 17 16 15 14 13 11 10 10 9 8 8 7 6
8 9 10 12 13 14 15 16 16 15 14 13 12 13 13 13 13 12 13 14 14 13 13 14 14 15 15 14 13 12 11 11 11 10 10 10 13 18 23 26 28 30 32 35 38 38 34 32 33 33 30 27 25 24 21 19 20 20 19 18 16 15 16 17 18 20 22 22 22 21 20 19 19 19 18 16 15 15 14 13 12 11 9 8 7 7 6
9 10 11 12 13 14 15 15 14 13 13 12 13 14 14 14 14 14 14 16 16 15 15 15 15 15 16 15 14 13 12 11 11 11 10 10 10 13 17 22 27 31 35 38 41 40 35 33 33 33 30 27 26 24 21 21 21 20 18 17 16 15 16 18 19 21 24 24 23 22 21 20 20 19 18 17 16 15 14 13 11 10 8 7 6 7 7
8 9 10 12 13 13 13 13 13 12 11 12 13 14 15 15 15 15 16 17 18 17 17 17 17 17 16 15 15 14 13 11 10 10 11 12 11 12 15 20 23 26 32 38 39 36 31 28 28 28 26 24 24 23 23 22 21 20 19 17 16 16 18 19 20 23 25 25 23 22 22 21 20 19 18 17 16 15 14 12 11 10 9 8 7 8 9
5 5 7 9 11 11 11 12 12 12 11 12 12 13 14 15 16 16 17 18 18 18 18 17 17 17 16 15 14 14 13 11 9 9 10 10 10 11 15 18 20 22 27 31 29 25 22 23 24 25 26 25 23 23 23 23 22 21 21 19 18 18 20 21 22 25 26 24 22 22 22 21 20 18 18 17 16 15 14 13 11 10 9 8 9 10 11
2 3 4 5 6 8 9 11 11 11 11 11 11 12 13 14 15 16 17 18 18 18 18 17 17 17 18 18 17 14 12 11 12 14 14 12 11 10 13 16 19 21 22 22 21 19 20 21 23 24 24 23 22 21 21 22 22 23 23 22 21 22 23 24 26 27 26 24 22 22 22 21 19 19 18 18 17 16 14 12 11 11 10 10 11 12 12
1 2 3 2 3 4 6 8 9 10 10 10 10 10 11 12 13 15 16 16 17 18 19 18 17 17 17 17 15 13 12 11 13 16 15 13 11 10 10 12 15 18 19 19 19 19 20 21 22 22 21 20 19 18 19 20 22 24 24 23 23 25 26 27 27 27 25 23 22 22 21 21 20 20 20 18 17 15 14 13 13 12 12 12 12 13 13
2 1 2 3 2 2 3 4 6 7 7 8 8 8 8 9 10 12 13 14 15 16 17 16 14 13 13 13 12 11 12 13 14 14 14 14 12 10 9 10 13 15 17 18 19 19 19 20 21 20 19 18 17 16 17 20 22 23 22 23 24 25 26 27 26 25 24 22 22 21 22 22 21 21 19 18 17 16 15 14 14 13 13 13 14 14 15
6 4 3 2 2 3 3 3 4 4 5 6 6 6 5 6 8 9 10 10 10 10 12 12 12 12 13 14 15 14 13 13 14 15 16 16 15 14 13 12 14 14 15 16 17 18 19 20 21 20 19 18 17 16 18 20 21 20 20 22 24 24 25 25 25 24 23 22 21 22 22 23 22 20 19 18 17 16 16 15 15 14 14 15 15 15 14
8 7 5 3 1 2 3 3 4 4 4 4 3 3 3 4 6 7 8 9 9 10 11 13 14 13 13 13 13 13 12 12 12 14 16 17 17 17 17 16 15 15 13 14 16 18 21 22 22 21 20 19 18 18 19 20 20 19 19 20 22 23 23 24 24 23 22 22 22 22 23 22 21 20 19 18 18 17 17 16 16 16 16 16 15 13 12
8 7 6 5 3 2 2 3 4 5 4 4 3 3 3 3 4 5 6 7 9 10 11 12 13 13 14 13 11 11 11 11 12 14 16 17 16 16 16 16 16 16 14 13 16 20 22 22 22 21 20 19 19 19 20 19 18 18 19 20 21 22 22 22 22 22 22 22 23 23 22 22 21 20 20 19 19 18 18 17 16 16 15 14 13 12 12
8 8 7 5 4 3 2 1 3 5 5 5 5 4 4 4 4 4 4 6 7 8 9 10 10 11 13 13 12 12 13 14 15 17 18 18 17 17 17 17 17 17 15 15 17 20 20 21 21 20 19 18 18 18 19 19 19 18 18 18 20 22 22 22 23 23 22 23 22 22 21 21 21 21 20 20 19 18 18 17 16 15 13 13 13 13 14
9 8 7 6 5 5 4 3 3 4 5 6 6 6 6 5 5 4 5 8 9 9 9 10 11 12 12 12 12 12 14 16 18 19 20 20 19 19 18 18 18 17 15 15 17 19 19 20 20 19 18 17 17 17 17 18 19 18 17 18 20 21 22 23 23 23 23 23 22 21 21 21 21 20 20 19 18 17 17 17 16 16 15 15 15 15 15
8 8 7 6 6 7 6 5 5 5 5 5 6 7 7 7 6 6 6 7 8 9 9 9 10 11 12 11 11 12 14 15 16 17 19 20 21 20 18 17 16 15 15 16 17 18 18 18 18 17 16 16 16 15 14 15 17 18 19 19 20 22 22 22 22 22 22 22 22 21 21 21 20 19 18 18 17 17 17 18 18 18 17 16 16 16 17
7 7 6 6 7 7 8 7 7 6 5 6 6 6 7 7 8 8 7 6 7 10 11 11 10 10 11 11 11 12 12 13 12 13 15 18 19 18 16 15 15 16 17 18 18 17 17 18 18 18 17 16 15 13 12 14 17 18 19 19 20 21 22 22 22 22 21 21 20 20 19 18 18 18 18 18 18 18 18 19 19 18 17 17 17 18 19
8 8 7 7 6 6 6 7 7 5 5 5 5 6 6 6 7 8 8 8 9 10 12 13 13 11 10 11 12 13 14 14 14 13 14 16 17 16 16 16 17 18 19 19 18 17 17 17 18 19 18 17 14 11 11 14 17 19 20 19 19 18 19 20 20 21 21 21 20 20 19 19 19 19 19 19 18 18 18 18 17 17 17 18 18 19 19
9 8 8 7 6 5 5 6 6 5 4 3 4 6 6 5 6 7 8 8 8 8 10 13 14 11 8 10 14 16 16 15 14 14 14 14 14 14 14 14 15 16 17 18 18 18 17 17 16 16 16 16 13 10 11 16 20 21 21 20 19 18 18 19 19 20 20 21 21 20 20 20 20 20 19 19 18 17 17 17 17 18 18 18 18 19 19
8 8 7 7 6 5 5 5 5 5 5 4 4 6 7 5 5 6 8 9 8 6 7 10 10 9 9 13 17 18 17 15 14 13 13 13 14 14 14 13 13 14 16 17 17 17 16 15 13 12 13 13 12 11 13 18 23 24 23 22 22 21 19 18 18 18 19 20 20 20 20 20 20 20 20 19 18 17 18 18 18 17 17 17 18 18 18
Wind_Direction
196 200 212 222 214 200 195 194 196 205 218 222 224 227 223 216 221 235 222 198 190 179 177 187 187 186 186 186 187 187 183 184 195 207 211 208 206 204 202 201 202 201 205 209 210 211 210 209 209 210 209 206 205 205 204 205 210 215 219 219 216 214 214 214 214 214 214 216 219 224 230 237 244 250 254 257 259 259 259 261 264 269 272 275 278 280 281
182 173 183 204 204 200 203 204 209 220 230 219 214 229 236 223 226 241 225 201 193 182 178 185 183 181 187 192 194 195 192 192 201 211 214 211 208 208 207 205 203 202 207 212 216 219 215 209 206 205 205 205 207 207 205 208 216 223 226 227 222 216 214 216 217 216 216 216 214 214 221 230 241 248 252 253 253 254 257 262 266 270 273 275 277 278 279
190 183 177 183 193 201 210 213 216 224 231 224 210 224 228 217 220 231 212 199 193 185 183 185 183 182 187 192 197 200 201 201 205 212 215 214 212 212 212 208 204 203 206 211 219 224 216 206 201 202 203 204 210 213 213 217 224 225 228 232 231 222 218 221 223 220 216 214 210 208 217 233 247 258 266 267 263 260 261 264 267 268 269 270 272 275 277
194 198 208 202 197 207 220 222 222 224 226 223 218 223 224 222 223 205 193 193 188 180 180 185 186 188 190 196 208 212 206 205 209 216 219 219 218 218 216 212 208 206 210 219 228 228 216 207 206 208 208 209 214 216 217 224 228 226 225 230 233 229 225 228 231 227 219 218 222 228 237 249 261 272 283 284 279 271 264 263 265 263 265 267 269 272 274
131 161 226 238 206 213 230 225 222 225 225 221 224 234 233 229 226 207 195 198 189 173 172 178 183 192 199 206 217 220 211 209 214 220 223 223 220 219 218 216 213 211 216 227 232 223 213 211 213 215 215 217 218 213 210 222 230 227 224 228 232 232 229 228 228 228 230 236 245 251 255 261 270 278 286 287 279 261 253 257 259 259 261 265 268 273 277
92 141 189 203 199 203 222 220 219 225 228 223 228 239 238 232 232 226 212 203 194 182 175 176 179 188 203 215 224 224 220 219 219 220 222 222 219 219 221 220 216 216 221 229 228 219 214 214 216 219 222 226 226 216 209 218 226 226 225 227 232 231 223 220 222 228 241 250 254 255 259 267 276 282 284 279 259 245 245 251 254 256 261 267 273 278 280
103 136 163 174 188 173 183 200 210 222 226 226 235 243 240 229 225 216 200 195 199 196 185 177 178 180 196 215 223 220 217 218 220 220 220 222 222 224 227 225 222 224 229 230 225 220 218 218 219 222 226 231 233 226 222 225 228 229 227 225 228 225 217 218 225 235 246 254 257 261 267 272 276 276 271 260 244 241 245 252 257 263 269 273 276 276 274
115 137 150 154 162 147 146 164 195 212 220 228 234 231 221 213 212 209 204 197 196 198 191 180 177 181 191 201 205 204 207 211 215 216 217 223 229 232 233 231 228 228 228 226 223 222 222 223 224 223 223 227 232 233 233 231 230 232 231 224 221 221 221 225 234 243 252 259 263 265 268 270 268 260 250 243 241 244 249 255 260 265 268 271 272 271 262
123 120 118 126 137 138 141 149 181 196 209 225 225 211 195 204 211 215 219 212 197 191 190 185 182 187 195 199 200 203 209 211 209 209 209 216 227 230 229 225 223 222 221 221 224 225 227 230 229 223 220 226 236 241 241 238 234 232 229 221 218 222 228 235 242 251 257 260 261 261 261 259 249 239 235 237 242 247 250 252 255 259 265 270 268 255 224
129 116 102 114 125 128 149 156 166 181 189 210 218 212 200 208 215 217 224 227 213 191 185 186 189 194 200 206 213 218 220 214 209 209 210 212 222 224 216 211 212 216 218 221 226 228 227 228 227 222 220 227 238 242 243 245 243 233 221 217 221 227 234 241 247 253 256 256 255 253 247 238 227 224 230 238 243 246 242 241 247 255 264 263 244 214 191
104 99 89 121 143 125 157 173 203 207 199 198 209 217 221 220 221 220 223 227 215 193 185 187 192 198 205 214 228 235 229 219 217 221 224 225 230 227 210 203 205 209 216 222 224 219 212 212 219 221 219 222 230 234 237 244 243 229 216 217 226 231 238 245 248 251 252 250 246 237 226 218 214 217 226 230 229 222 214 218 233 249 253 232 202 188 181
76 78 81 125 157 150 173 219 234 251 257 210 195 209 226 227 226 221 216 218 211 197 191 194 201 208 218 229 240 244 240 232 230 235 238 239 240 236 222 210 207 210 216 217 209 199 194 200 211 218 217 216 217 223 231 235 228 219 215 218 226 233 240 245 246 246 243 234 225 217 211 208 206 205 207 205 200 198 203 229 249 252 235 201 181 177 177
51 58 57 92 154 176 220 273 261 266 261 213 198 204 217 219 222 216 203 210 212 204 200 206 216 223 232 239 242 245 251 249 243 239 237 237 237 229 223 223 218 213 213 207 197 195 200 206 214 220 220 217 215 217 221 215 204 206 213 221 230 238 241 240 237 231 222 212 206 203 202 199 193 189 189 189 194 210 241 261 261 239 206 185 174 172 177
245 6 36 71 108 161 205 248 258 244 229 217 217 222 223 219 219 213 201 205 212 214 217 225 231 232 235 239 242 248 253 250 240 236 234 235 229 218 217 222 217 208 205 198 190 201 214 217 221 224 220 215 215 216 212 201 198 211 223 234 240 240 235 228 220 213 208 204 199 195 192 189 185 186 191 203 228 255 267 265 239 199 183 176 171 174 185
225 226 148 114 133 174 204 228 243 234 228 228 227 228 230 230 226 220 215 210 212 218 226 232 233 235 239 241 242 247 249 246 241 246 252 248 232 220 218 218 211 208 209 199 191 203 215 217 221 224 218 213 216 216 208 202 209 224 237 243 240 231 223 216 209 204 201 195 188 184 184 186 190 200 219 244 262 267 260 230 193 178 173 172 175 182 188
211 210 202 201 191 187 207 230 241 239 236 240 242 237 235 235 233 230 225 215 211 218 224 227 231 236 240 241 243 245 249 251 255 258 260 260 246 231 224 214 206 208 212 210 212 219 219 218 220 219 213 211 214 212 209 210 221 236 244 241 229 217 212 209 202 198 193 186 182 182 186 196 212 233 251 261 261 246 210 185 175 171 172 178 184 186 186
200 203 197 192 192 200 225 244 254 261 253 245 245 244 240 236 235 234 231 223 214 212 214 220 228 233 235 235 235 240 247 253 259 260 260 263 256 240 228 214 203 203 205 207 217 222 217 214 214 208 204 209 210 208 211 220 234 242 238 227 214 207 205 204 200 196 191 187 187 190 198 215 235 249 253 248 231 202 180 173 171 171 176 184 188 187 183
189 193 193 187 187 203 221 230 243 254 255 248 245 245 244 240 235 233 235 231 222 212 208 210 213 217 223 225 225 233 244 252 258 260 258 257 256 247 233 217 202 198 200 203 211 216 212 208 205 199 202 207 204 203 213 228 239 238 225 212 208 206 204 202 200 196 192 192 197 205 218 235 244 242 229 211 193 181 174 171 171 172 180 189 191 188 186
183 189 198 205 199 199 211 221 232 240 242 240 238 242 246 244 238 234 233 230 223 217 213 210 207 209 216 225 234 243 248 253 259 261 255 252 257 257 240 219 201 197 202 203 205 208 207 203 199 199 202 203 201 205 218 231 237 229 215 207 207 205 202 200 198 196 195 198 207 219 229 235 233 221 202 184 175 170 169 170 172 178 187 193 193 192 197
189 196 201 208 209 208 216 224 226 228 228 229 234 240 247 250 244 236 231 225 220 216 211 209 213 220 228 236 243 247 248 251 256 256 248 247 256 259 241 219 202 199 205 205 201 201 202 199 199 200 201 202 207 214 225 236 234 219 208 206 205 203 200 199 197 197 200 205 213 217 218 216 209 196 182 173 166 163 166 172 180 189 196 198 198 203 211
199 198 195 200 202 207 218 223 216 211 213 223 233 238 241 246 245 234 225 215 210 211 211 210 213 220 229 237 240 243 248 252 252 248 242 243 252 253 237 218 204 201 209 209 200 196 197 197 197 199 202 207 216 226 236 238 226 211 206 206 204 201 200 199 198 200 202 206 210 209 207 203 192 180 173 167 163 165 173 182 189 197 201 203 208 216 224
205 197 193 198 202 206 214 216 211 207 209 220 231 235 233 232 227 218 213 203 201 208 213 214 215 218 229 239 245 249 254 252 245 239 237 239 246 245 233 218 206 201 207 210 200 193 194 195 196 202 209 215 224 236 239 231 217 209 208 208 204 203 203 200 198 200 203 208 210 208 203 194 183 176 173 171 170 172 178 185 193 200 203 207 214 223 234
209 205 200 201 207 211 213 211 209 209 211 216 225 231 231 227 220 212 209 205 206 211 215 218 220 223 234 244 248 249 249 243 236 232 230 234 241 239 229 219 207 198 199 203 198 192 192 194 198 206 214 222 234 240 234 223 214 211 211 208 205 205 204 199 198 201 205 210 212 208 201 191 182 177 175 177 179 177 177 185 194 200 205 210 215 227 238
204 205 203 205 212 218 220 220 220 220 220 222 226 230 230 227 221 212 207 203 207 213 218 223 226 227 231 235 238 239 238 234 229 226 223 224 232 235 228 217 206 198 197 200 197 193 192 195 200 208 217 228 237 235 227 222 217 213 210 207 204 203 202 200 201 205 210 212 211 208 203 195 186 179 176 178 182 183 185 192 198 200 205 209 216 230 239
200 201 203 210 219 225 226 227 230 230 229 230 233 237 238 230 218 210 207 203 200 205 214 223 229 231 230 231 232 233 233 229 224 222 220 219 223 226 220 211 203 198 197 198 196 191 191 195 200 209 223 233 235 232 230 226 219 214 210 205 202 202 201 201 205 211 215 215 212 207 200 192 185 180 177 177 181 187 194 200 201 202 205 209 217 227 232
198 201 204 211 218 221 223 226 230 234 235 235 237 240 240 231 218 212 212 209 206 207 211 216 223 227 227 227 231 234 233 228 222 218 216 216 219 219 212 206 202 199 201 207 205 195 190 195 201 211 226 236 235 233 232 226 219 215 208 202 200 200 200 203 209 214 216 216 211 201 190 185 182 182 182 182 184 189 194 197 202 205 207 211 217 220 219
198 202 208 216 219 220 222 225 228 231 234 234 234 235 234 229 223 215 210 209 210 211 212 214 218 220 219 223 230 235 236 231 222 218 216 213 213 212 206 201 199 196 201 214 216 200 192 195 201 212 227 237 236 234 232 226 221 215 206 199 198 199 202 205 209 212 213 211 204 194 187 184 182 183 186 189 191 194 196 196 200 205 207 209 211 207 206
208 208 213 221 227 229 230 230 230 232 233 230 228 227 225 224 228 224 208 201 208 214 218 222 221 216 216 225 230 230 232 230 222 219 219 213 208 209 205 198 195 197 202 212 214 203 195 197 203 213 225 231 232 232 230 226 222 216 206 198 197 201 207 211 212 211 209 205 198 191 187 185 184 184 188 192 196 199 200 200 201 204 203 201 199 196 197
220 218 215 218 225 230 231 228 227 229 230 228 226 224 219 218 226 228 215 204 206 212 222 231 230 221 220 230 234 229 229 231 225 221 221 217 212 211 206 198 197 205 213 220 219 208 201 201 205 213 221 224 226 230 229 224 221 216 207 199 198 204 210 213 213 211 206 200 196 191 187 185 185 186 190 193 196 197 200 201 202 201 197 194 193 194 195
226 222 219 220 224 227 228 228 228 228 228 227 227 226 222 220 225 227 220 212 210 210 215 227 235 231 225 230 236 234 234 238 236 224 219 219 218 217 213 206 204 207 214 221 221 213 207 204 200 201 211 220 225 227 226 220 217 214 207 201 200 205 210 212 212 210 205 199 195 191 187 185 185 188 192 195 196 197 198 199 197 193 189 189 189 189 194
230 223 221 223 225 226 228 232 234 234 231 229 229 229 225 223 224 224 219 214 211 210 208 211 222 229 225 223 228 232 234 239 242 234 221 217 219 222 222 218 214 210 212 219 222 219 217 213 201 192 200 214 222 224 222 217 214 213 210 206 204 204 206 208 208 206 203 199 194 191 189 187 187 190 193 194 195 197 197 195 191 186 183 186 186 185 193
236 227 225 227 230 231 230 231 235 238 236 234 233 231 225 222 221 219 217 214 211 209 208 206 209 217 221 220 222 224 225 231 243 247 234 218 217 221 224 223 220 216 217 225 229 225 222 220 210 197 198 206 212 215 216 214 213 214 213 211 210 209 208 207 205 202 200 197 193 190 189 188 189 192 193 193 194 195 193 189 185 182 182 186 186 184 193
243 236 234 234 235 236 235 234 237 239 237 233 233 230 225 221 220 218 216 215 213 210 210 210 211 216 224 226 220 213 219 233 247 254 239 218 213 218 222 224 222 218 219 227 232 228 220 216 212 203 201 202 203 204 207 209 211 215 216 214 213 212 210 207 204 201 198 194 190 189 190 191 193 193 192 193 194 193 188 185 183 181 182 189 194 198 206
246 245 245 243 242 242 243 246 248 247 242 238 237 234 229 225 224 222 220 220 219 216 213 216 219 223 229 231 217 207 217 232 245 252 240 219 210 214 219 223 224 222 222 228 234 231 224 218 212 204 201 200 198 197 200 204 209 213 215 214 212 211 209 207 204 201 197 192 189 188 191 194 194 193 192 194 193 189 185 184 184 183 184 191 202 211 217
241 243 243 242 241 242 245 249 253 254 255 255 250 244 238 231 226 223 222 224 226 224 220 220 221 223 230 235 228 221 227 240 249 253 248 229 215 214 219 222 224 225 227 232 235 234 229 225 218 207 198 195 195 195 196 201 208 213 214 213 211 207 205 205 203 199 194 190 189 190 193 194 194 193 194 193 190 186 184 186 189 191 190 192 204 216 225
240 246 245 242 242 244 246 249 251 252 254 256 252 245 238 231 225 223 225 228 231 231 229 227 225 222 225 231 234 235 241 249 251 251 253 245 227 221 223 225 228 230 232 235 237 235 231 227 222 212 198 189 190 193 193 198 206 211 213 212 208 202 199 200 199 195 190 189 191 193 195 194 194 195 194 191 188 187 189 190 192 195 195 196 206 221 234
245 249 250 248 248 247 246 247 248 248 246 243 240 238 235 231 228 226 227 231 235 237 235 235 233 228 225 227 231 233 235 238 237 234 235 237 231 225 226 229 232 235 237 239 239 237 232 226 222 215 203 191 186 186 190 196 203 207 209 207 203 197 195 195 194 191 189 190 192 194 195 196 195 194 192 190 189 190 192 193 194 199 205 210 218 229 241
257 256 252 250 250 249 247 246 244 242 240 238 236 237 237 236 234 231 230 232 237 238 237 236 237 234 230 229 228 224 224 228 229 221 218 222 226 228 232 236 238 241 244 243 241 237 233 227 221 216 209 198 188 184 186 192 198 201 201 200 196 193 192 191 191 192 193 194 193 194 195 197 196 193 191 192 191 191 194 196 200 207 216 225 236 244 250
256 257 252 247 245 245 247 247 245 244 244 243 241 239 239 238 237 234 232 234 237 239 239 239 237 234 231 231 230 225 219 219 222 221 220 221 224 230 239 245 248 251 251 247 241 236 232 227 219 211 205 200 196 193 193 194 196 195 193 191 191 190 190 190 192 194 196 196 195 195 197 198 195 191 192 195 196 197 199 203 209 218 227 236 247 254 258
239 243 244 243 242 242 243 245 247 251 252 250 246 243 238 236 235 233 232 234 236 237 237 236 234 230 227 228 228 223 214 215 229 236 233 224 219 226 243 252 255 255 251 244 236 231 228 222 214 206 201 199 201 203 204 202 197 192 188 187 188 191 192 193 194 196 197 197 196 196 198 198 194 194 198 201 202 204 207 212 219 227 234 242 250 258 262
246 245 250 251 247 242 240 239 242 246 248 249 250 248 241 235 232 229 228 230 231 230 230 230 228 227 227 227 224 216 210 219 238 244 234 216 208 222 244 256 258 254 247 237 230 225 220 213 206 201 198 196 198 203 204 199 193 189 187 188 191 195 197 197 196 196 198 198 197 197 199 199 198 200 204 207 209 211 215 221 228 234 240 247 256 262 266
337 301 277 272 258 240 234 236 238 240 240 242 245 248 248 243 236 229 225 225 224 223 222 221 219 218 220 219 216 216 221 230 236 234 220 206 205 218 239 252 252 248 243 236 228 219 210 203 199 196 194 192 191 192 193 191 190 189 190 192 195 198 199 198 197 197 198 198 198 198 201 202 203 206 208 211 215 219 224 229 236 242 248 254 261 265 268
331 327 316 295 250 222 223 236 244 247 247 245 243 244 248 248 240 229 221 218 213 208 206 207 208 211 214 213 212 216 225 231 227 216 208 209 217 226 234 242 245 244 244 241 231 218 206 200 198 196 193 188 184 182 184 187 190 192 194 195 197 198 198 198 198 199 199 199 200 202 204 206 208 210 213 217 222 227 232 238 244 249 255 259 263 265 266
338 340 342 337 279 221 218 228 243 255 265 265 256 244 238 241 239 230 217 207 201 199 200 201 203 206 210 213 215 216 220 224 222 213 207 210 220 226 228 230 236 242 248 248 239 224 211 203 200 198 194 189 184 182 182 184 188 192 196 198 197 196 196 198 199 200 200 201 203 205 208 210 212 215 219 224 229 234 239 245 250 256 261 264 266 267 269
347 351 354 348 324 292 250 224 228 239 252 264 266 253 232 233 242 237 219 207 205 204 202 202 205 207 209 212 217 218 217 218 220 217 211 211 219 225 226 227 234 242 245 243 235 226 215 207 203 201 196 187 181 179 179 181 186 192 196 197 196 195 196 199 201 202 204 205 206 208 209 212 215 218 222 227 232 238 243 248 254 259 265 268 271 273 276
344 353 2 0 341 327 318 258 233 232 238 248 255 247 228 224 234 233 212 198 194 195 199 205 211 212 212 213 216 220 221 220 219 218 218 219 224 228 230 234 240 243 240 231 225 220 212 206 203 199 190 180 175 175 179 184 190 195 197 197 196 196 198 200 202 204 208 210 211 211 213 215 218 222 226 231 236 242 247 252 257 263 268 273 276 279 282
337 339 346 347 338 331 328 308 272 252 241 241 242 237 227 225 236 239 215 195 187 189 199 209 214 216 218 219 221 226 230 228 223 219 218 219 220 224 230 237 242 239 230 221 218 215 209 202 197 189 180 172 170 174 182 189 193 195 198 199 199 200 202 202 203 205 208 211 213 214 216 219 222 226 231 236 242 248 254 259 265 270 274 277 280 281 281
328 324 326 330 329 326 320 307 292 278 260 246 237 230 226 225 230 234 228 211 199 196 196 199 206 215 219 219 219 225 228 226 221 216 214 213 216 221 228 233 230 221 211 209 211 209 200 190 181 173 170 170 170 172 183 194 196 197 198 199 200 201 203 203 205 207 209 212 215 218 221 224 228 232 236 242 247 253 258 263 268 272 275 276 277 277 277
323 318 317 319 317 314 310 308 305 296 276 256 241 229 222 222 224 226 222 213 206 203 199 196 199 206 209 209 210 210 205 197 197 205 211 213 215 216 213 206 198 195 198 201 201 195 184 174 168 165 165 167 167 170 184 196 199 199 200 201 202 204 205 205 207 210 212 215 219 222 224 228 231 234 238 244 249 254 259 263 267 270 272 272 271 273 276
322 321 318 314 311 312 315 321 324 315 292 269 253 238 225 219 223 225 220 210 205 205 204 202 201 201 200 198 195 185 174 170 175 187 198 204 205 200 191 183 182 186 190 191 187 178 169 165 163 161 159 158 160 170 187 196 197 199 202 202 204 207 210 211 211 212 215 218 222 224 226 229 233 236 240 245 249 253 257 260 262 264 265 268 270 275 280
317 319 323 325 325 323 324 328 327 320 309 285 247 230 223 222 224 222 217 214 213 206 197 197 200 199 186 176 174 170 166 169 175 179 184 189 187 177 166 163 168 173 175 174 169 163 159 156 154 151 148 150 158 175 191 193 193 198 203 204 204 206 211 214 215 215 216 218 221 224 226 229 232 235 237 241 243 246 248 251 254 257 262 268 274 279 284
316 314 318 328 331 323 318 324 325 319 322 319 269 232 218 216 226 224 213 209 211 196 172 175 185 182 168 167 172 172 171 170 170 166 162 160 155 148 145 146 152 159 163 164 161 157 153 149 146 144 146 153 167 184 193 192 193 197 203 205 205 206 210 215 219 221 223 225 226 227 230 233 235 236 238 240 242 245 248 253 258 264 270 276 279 279 279
Height
3010 3012 3014 3016 3017 3018 3021 3025 3028 3030 3032 3034 3035 3037 3038 3040 3041 3043 3044 3045 3045 3045 3046 3047 3049 3052 3056 3060 3063 3065 3065 3066 3068 3069 3070 3073 3075 3076 3079 3081 3084 3086 3088 3089 3091 3093 3094 3095 3097 3099 3101 3103 3105 3107 3109 3111 3113 3114 3115 3115 3117 3119 3120 3121 3122 3123 3124 3125 3126 3127 3127 3128 3129 3129 3130 3131 3131 3131 3131 3131 3131 3131 3131 3131 3131 3130 3130
3011 3013 3014 3016 3017 3019 3022 3025 3027 3030 3032 3033 3034 3036 3038 3039 3040 3042 3044 3045 3046 3047 3047 3048 3049 3052 3055 3059 3062 3065 3065 3066 3066 3067 3069 3071 3073 3075 3077 3080 3083 3085 3087 3088 3090 3092 3093 3094 3096 3098 3100 3102 3104 3106 3108 3110 3112 3114 3114 3114 3116 3118 3119 3119 3120 3121 3123 3124 3124 3125 3126 3126 3127 3128 3128 3129 3129 3129 3129 3129 3129 3129 3129 3128 3128 3128 3128
3011 3012 3013 3014 3016 3019 3021 3024 3026 3029 3031 3032 3033 3035 3036 3038 3040 3041 3042 3044 3046 3047 3047 3048 3050 3053 3055 3058 3061 3064 3065 3065 3066 3067 3068 3070 3072 3074 3076 3079 3082 3084 3086 3087 3089 3090 3092 3093 3095 3097 3099 3101 3103 3104 3106 3109 3111 3112 3113 3113 3115 3116 3117 3117 3118 3119 3121 3123 3123 3124 3125 3125 3126 3126 3127 3127 3127 3127 3127 3127 3127 3127 3127 3127 3127 3127 3127
3011 3012 3013 3014 3016 3018 3021 3023 3025 3027 3029 3031 3032 3034 3035 3037 3039 3040 3042 3044 3045 3046 3047 3048 3050 3053 3056 3058 3060 3062 3063 3065 3066 3067 3068 3069 3071 3073 3076 3078 3081 3083 3084 3086 3088 3089 3091 3092 3094 3096 3098 3100 3101 3102 3105 3107 3109 3110 3111 3112 3113 3114 3115 3116 3118 3120 3121 3123 3123 3123 3123 3123 3124 3124 3125 3125 3125 3125 3125 3124 3125 3125 3125 3125 3125 3125 3125
3011 3012 3013 3014 3015 3018 3020 3021 3023 3025 3027 3029 3031 3033 3035 3037 3038 3040 3042 3045 3047 3047 3046 3047 3050 3052 3055 3057 3058 3060 3062 3064 3065 3066 3067 3069 3071 3073 3075 3077 3080 3082 3083 3085 3086 3088 3089 3091 3093 3095 3097 3097 3097 3100 3104 3106 3107 3108 3109 3109 3110 3112 3114 3116 3118 3120 3121 3121 3122 3122 3122 3122 3122 3122 3122 3123 3123 3123 3123 3123 3123 3124 3124 3124 3124 3123 3123
3012 3013 3014 3015 3018 3019 3019 3020 3022 3023 3025 3028 3030 3032 3034 3036 3037 3038 3041 3045 3047 3047 3046 3047 3049 3052 3054 3056 3057 3059 3061 3062 3063 3065 3067 3069 3071 3073 3075 3077 3079 3081 3082 3084 3085 3087 3088 3090 3091 3093 3094 3094 3096 3101 3104 3104 3105 3105 3106 3107 3109 3111 3113 3115 3117 3118 3119 3119 3120 3120 3120 3120 3120 3119 3120 3120 3121 3121 3121 3121 3122 3122 3122 3122 3122 3122 3121
3013 3014 3015 3018 3020 3019 3019 3020 3021 3022 3024 3027 3030 3032 3034 3035 3036 3037 3040 3042 3045 3046 3047 3048 3050 3052 3054 3055 3057 3059 3061 3062 3063 3065 3066 3068 3070 3072 3074 3076 3078 3079 3081 3083 3084 3085 3086 3088 3089 3091 3092 3094 3098 3101 3102 3101 3102 3103 3104 3106 3108 3110 3112 3114 3115 3116 3117 3117 3118 3118 3118 3118 3117 3117 3118 3118 3119 3119 3119 3120 3120 3120 3121 3120 3120 3120 3120
3013 3014 3016 3018 3020 3019 3019 3020 3021 3022 3024 3026 3029 3032 3033 3034 3035 3037 3038 3041 3043 3045 3046 3047 3049 3051 3053 3055 3057 3059 3060 3062 3063 3064 3066 3067 3069 3070 3072 3074 3075 3077 3079 3081 3082 3083 3084 3086 3087 3089 3092 3094 3096 3097 3098 3098 3100 3101 3103 3105 3107 3109 3111 3112 3113 3114 3114 3115 3115 3115 3116 3116 3116 3116 3116 3117 3117 3117 3118 3118 3119 3119 3119 3119 3119 3119 3119
3014 3015 3016 3017 3018 3019 3020 3021 3021 3022 3024 3026 3028 3030 3031 3032 3034 3036 3037 3039 3041 3043 3045 3046 3048 3050 3052 3053 3055 3057 3059 3061 3062 3063 3064 3066 3067 3068 3069 3070 3073 3075 3077 3078 3080 3081 3083 3084 3086 3089 3092 3093 3094 3095 3096 3096 3097 3100 3102 3104 3106 3107 3109 3110 3111 3112 3112 3113 3113 3113 3114 3114 3114 3114 3115 3115 3116 3116 3117 3117 3118 3118 3118 3118 3118 3118 3118
3014 3015 3016 3018 3019 3020 3021 3022 3022 3023 3024 3025 3027 3028 3029 3031 3032 3033 3035 3037 3039 3041 3043 3045 3046 3048 3050 3052 3054 3056 3058 3059 3060 3062 3063 3064 3065 3066 3066 3068 3070 3072 3074 3076 3077 3079 3081 3083 3086 3089 3092 3093 3093 3093 3095 3095 3096 3098 3100 3102 3104 3106 3108 3108 3109 3109 3110 3110 3111 3111 3112 3112 3113 3113 3114 3114 3114 3115 3116 3116 3116 3116 3116 3117 3117 3117 3117
3015 3016 3017 3018 3019 3020 3021 3022 3023 3024 3025 3025 3027 3028 3028 3029 3030 3031 3033 3035 3037 3039 3041 3043 3045 3046 3048 3051 3053 3055 3057 3058 3059 3060 3061 3063 3064 3064 3065 3066 3068 3070 3072 3074 3075 3077 3079 3082 3085 3088 3090 3091 3092 3093 3094 3094 3095 3097 3099 3101 3103 3105 3105 3106 3107 3107 3108 3108 3109 3109 3110 3111 3111 3112 3112 3113 3113 3114 3114 3115 3115 3115 3115 3116 3116 3117 3117
3015 3016 3017 3018 3019 3019 3020 3021 3022 3024 3025 3026 3027 3027 3027 3027 3029 3030 3032 3034 3036 3038 3040 3041 3043 3046 3048 3051 3053 3054 3055 3056 3057 3059 3060 3061 3062 3063 3064 3065 3066 3068 3070 3072 3073 3075 3078 3081 3084 3085 3087 3089 3091 3092 3093 3094 3095 3097 3099 3101 3102 3103 3103 3104 3105 3105 3106 3106 3107 3108 3108 3109 3110 3111 3111 3112 3112 3113 3113 3114 3114 3114 3115 3115 3116 3117 3117
3016 3017 3018 3019 3019 3020 3021 3022 3022 3023 3024 3025 3026 3026 3026 3027 3028 3029 3032 3034 3037 3038 3040 3041 3043 3045 3048 3050 3052 3052 3053 3054 3056 3057 3058 3060 3061 3062 3063 3064 3065 3066 3068 3070 3072 3075 3078 3081 3083 3084 3085 3087 3089 3090 3092 3093 3094 3096 3097 3099 3100 3100 3101 3102 3102 3103 3104 3104 3105 3106 3107 3108 3109 3110 3110 3111 3111 3112 3112 3113 3113 3114 3114 3115 3116 3116 3117
3017 3018 3018 3019 3020 3020 3021 3022 3022 3023 3024 3025 3025 3026 3027 3028 3029 3030 3032 3034 3037 3039 3040 3041 3043 3045 3047 3049 3050 3051 3052 3053 3054 3056 3057 3058 3059 3061 3062 3063 3064 3065 3067 3068 3070 3073 3076 3079 3081 3082 3084 3086 3087 3089 3091 3092 3093 3094 3095 3096 3098 3098 3099 3100 3101 3101 3102 3103 3104 3105 3106 3106 3107 3108 3109 3109 3110 3111 3111 3112 3112 3113 3114 3115 3116 3116 3117
3017 3018 3019 3019 3019 3020 3020 3021 3022 3023 3023 3024 3024 3025 3026 3027 3028 3030 3032 3034 3036 3037 3038 3040 3042 3044 3046 3047 3048 3049 3050 3052 3053 3055 3056 3057 3058 3059 3060 3061 3061 3063 3065 3068 3070 3072 3074 3076 3079 3081 3082 3084 3085 3087 3088 3090 3091 3092 3093 3095 3096 3096 3097 3098 3099 3100 3101 3102 3103 3104 3104 3105 3106 3107 3108 3108 3109 3110 3110 3111 3112 3113 3114 3115 3115 3116 3116
3016 3017 3018 3018 3019 3019 3020 3021 3021 3022 3022 3023 3024 3025 3025 3026 3028 3029 3031 3033 3034 3035 3037 3039 3041 3043 3044 3046 3047 3048 3049 3050 3052 3053 3055 3055 3056 3057 3058 3058 3059 3061 3065 3067 3069 3070 3072 3075 3077 3079 3081 3082 3084 3085 3086 3088 3089 3091 3092 3093 3094 3095 3096 3097 3098 3099 3100 3101 3102 3103 3103 3104 3105 3106 3106 3107 3108 3108 3109 3110 3112 3113 3114 3115 3115 3116 3116
3016 3017 3018 3018 3019 3020 3020 3021 3022 3022 3022 3023 3023 3024 3024 3025 3026 3028 3029 3031 3033 3034 3036 3038 3040 3042 3043 3044 3046 3047 3048 3049 3050 3052 3053 3054 3054 3055 3056 3057 3058 3060 3063 3066 3067 3069 3071 3074 3076 3078 3080 3081 3082 3083 3084 3086 3088 3089 3091 3092 3093 3094 3095 3096 3096 3097 3098 3099 3100 3101 3102 3103 3104 3105 3105 3106 3107 3108 3109 3110 3112 3113 3114 3114 3115 3115 3115
3016 3017 3018 3018 3019 3020 3021 3021 3022 3022 3022 3022 3022 3022 3023 3024 3025 3026 3028 3030 3031 3033 3035 3037 3039 3041 3042 3043 3045 3046 3047 3048 3049 3050 3051 3052 3053 3054 3055 3056 3057 3059 3061 3064 3066 3068 3070 3072 3075 3077 3079 3080 3081 3082 3083 3085 3087 3088 3089 3090 3091 3092 3093 3094 3095 3096 3097 3098 3099 3100 3102 3102 3103 3104 3105 3106 3107 3108 3109 3111 3112 3113 3113 3114 3114 3114 3114
3016 3017 3018 3019 3020 3020 3021 3021 3021 3021 3021 3021 3021 3021 3022 3023 3024 3025 3027 3028 3030 3032 3034 3036 3038 3040 3041 3043 3044 3045 3046 3047 3048 3049 3050 3051 3051 3053 3054 3054 3055 3057 3059 3061 3064 3066 3069 3071 3074 3076 3077 3079 3080 3081 3083 3084 3085 3086 3087 3089 3090 3091 3092 3093 3094 3095 3097 3098 3099 3100 3101 3101 3102 3103 3104 3105 3107 3108 3110 3111 3111 3112 3113 3113 3113 3114 3114
3016 3017 3018 3019 3020 3020 3021 3021 3021 3021 3021 3021 3021 3021 3021 3021 3023 3024 3026 3027 3029 3031 3033 3035 3038 3039 3040 3041 3043 3044 3045 3046 3047 3048 3049 3049 3050 3051 3052 3052 3054 3056 3057 3059 3062 3065 3068 3071 3073 3074 3076 3077 3078 3080 3082 3083 3084 3085 3086 3087 3089 3090 3091 3092 3094 3095 3096 3097 3098 3099 3100 3100 3101 3102 3104 3105 3106 3108 3109 3110 3111 3111 3112 3113 3113 3113 3113
3016 3017 3018 3019 3019 3019 3020 3020 3020 3020 3021 3021 3020 3021 3021 3021 3022 3023 3025 3027 3028 3030 3032 3034 3036 3038 3039 3040 3041 3042 3043 3044 3045 3046 3047 3048 3049 3050 3050 3050 3052 3055 3057 3059 3062 3065 3067 3069 3071 3073 3074 3076 3077 3079 3080 3082 3082 3084 3085 3086 3088 3089 3090 3092 3093 3094 3095 3096 3097 3098 3098 3099 3100 3102 3103 3104 3106 3107 3108 3109 3110 3111 3111 3112 3112 3113 3113
3016 3017 3018 3018 3019 3019 3019 3019 3020 3020 3021 3021 3020 3021 3021 3021 3022 3023 3024 3026 3028 3029 3031 3033 3035 3036 3038 3039 3040 3040 3041 3042 3043 3044 3045 3046 3047 3048 3048 3049 3050 3054 3057 3059 3061 3064 3066 3068 3070 3072 3073 3075 3077 3078 3079 3080 3081 3082 3084 3085 3087 3088 3090 3091 3092 3093 3094 3095 3096 3096 3097 3098 3099 3101 3102 3104 3105 3106 3108 3109 3110 3110 3111 3112 3112 3112 3112
3015 3016 3016 3017 3018 3018 3019 3020 3020 3020 3020 3020 3020 3020 3021 3021 3022 3023 3024 3025 3027 3028 3030 3032 3034 3035 3036 3037 3038 3038 3039 3040 3041 3042 3043 3044 3045 3046 3046 3047 3049 3052 3055 3057 3059 3062 3064 3067 3069 3071 3072 3074 3076 3077 3077 3078 3080 3081 3082 3084 3086 3088 3089 3090 3091 3092 3093 3094 3094 3095 3096 3097 3099 3100 3102 3103 3105 3106 3107 3109 3109 3110 3110 3111 3111 3111 3112
3014 3015 3015 3016 3017 3017 3019 3019 3020 3020 3020 3020 3020 3020 3020 3021 3022 3023 3024 3025 3026 3027 3028 3030 3032 3033 3034 3035 3035 3036 3037 3038 3039 3040 3041 3042 3044 3044 3045 3046 3048 3050 3053 3056 3058 3060 3063 3066 3068 3070 3072 3073 3074 3075 3076 3077 3078 3080 3081 3083 3085 3086 3088 3089 3090 3091 3091 3092 3093 3094 3095 3097 3098 3099 3101 3103 3105 3106 3107 3108 3109 3109 3110 3110 3111 3111 3111
3013 3013 3014 3015 3016 3017 3018 3018 3018 3018 3019 3019 3019 3019 3019 3020 3021 3022 3023 3024 3025 3026 3027 3028 3029 3031 3032 3033 3033 3034 3034 3035 3036 3038 3039 3040 3042 3043 3044 3045 3047 3049 3052 3054 3056 3059 3062 3065 3067 3069 3071 3072 3073 3074 3075 3076 3077 3078 3080 3083 3084 3085 3086 3087 3088 3089 3090 3091 3092 3093 3095 3096 3098 3099 3101 3102 3104 3105 3107 3108 3108 3109 3109 3110 3110 3110 3110
3011 3012 3012 3013 3014 3015 3016 3016 3017 3017 3017 3017 3017 3018 3018 3019 3021 3022 3022 3023 3024 3025 3026 3027 3028 3029 3030 3031 3032 3032 3032 3033 3034 3035 3037 3038 3040 3041 3043 3044 3046 3048 3051 3053 3055 3058 3061 3063 3065 3067 3069 3070 3071 3072 3073 3074 3076 3077 3079 3081 3082 3083 3084 3086 3087 3088 3089 3090 3091 3092 3094 3095 3097 3099 3100 3102 3103 3104 3106 3107 3107 3108 3108 3109 3109 3109 3109
3010 3011 3011 3012 3012 3013 3014 3015 3015 3016 3016 3016 3016 3017 3018 3019 3020 3021 3022 3023 3023 3024 3025 3025 3027 3028 3029 3030 3030 3030 3030 3031 3032 3033 3035 3036 3038 3040 3042 3043 3045 3047 3050 3052 3054 3057 3059 3061 3063 3066 3067 3069 3070 3070 3071 3073 3074 3076 3078 3079 3080 3081 3082 3084 3085 3086 3087 3089 3090 3092 3093 3095 3096 3098 3100 3101 3102 3103 3104 3105 3106 3107 3107 3108 3108 3108 3108
3009 3010 3010 3011 3011 3012 3013 3014 3014 3015 3015 3015 3015 3016 3017 3018 3019 3020 3021 3022 3022 3023 3023 3024 3025 3026 3027 3028 3028 3029 3029 3029 3030 3031 3033 3034 3037 3039 3040 3042 3044 3046 3049 3051 3053 3055 3057 3059 3062 3064 3065 3067 3068 3069 3070 3071 3073 3074 3076 3078 3079 3080 3081 3082 3083 3085 3086 3087 3089 3090 3092 3094 3096 3097 3099 3100 3102 3103 3104 3105 3105 3106 3106 3107 3107 3107 3107
3008 3009 3010 3010 3011 3011 3012 3013 3013 3013 3014 3014 3015 3015 3016 3017 3018 3019 3020 3021 3021 3022 3022 3023 3024 3025 3025 3026 3027 3027 3028 3028 3028 3030 3031 3033 3035 3037 3039 3041 3044 3046 3048 3050 3052 3054 3056 3058 3059 3061 3063 3065 3066 3067 3068 3070 3072 3074 3076 3077 3078 3078 3080 3081 3082 3084 3085 3086 3088 3089 3091 3093 3095 3096 3098 3099 3100 3102 3103 3104 3104 3105 3105 3105 3105 3106 3106
3008 3008 3009 3009 3010 3010 3011 3011 3012 3012 3012 3013 3014 3014 3015 3016 3017 3018 3019 3020 3020 3021 3021 3022 3023 3023 3025 3026 3026 3026 3027 3027 3028 3029 3030 3032 3033 3035 3037 3039 3042 3044 3046 3048 3050 3053 3054 3054 3055 3058 3061 3063 3064 3065 3067 3069 3070 3072 3074 3075 3076 3077 3078 3080 3081 3082 3084 3085 3086 3088 3090 3092 3094 3095 3097 3098 3099 3101 3102 3102 3103 3104 3104 3104 3104 3105 3105
3007 3007 3007 3008 3008 3009 3010 3010 3010 3011 3011 3012 3013 3014 3014 3015 3015 3016 3017 3018 3019 3020 3021 3021 3022 3022 3023 3025 3025 3026 3026 3026 3027 3027 3028 3030 3031 3033 3035 3037 3040 3043 3045 3047 3049 3050 3051 3053 3054 3056 3058 3060 3062 3063 3065 3067 3069 3071 3073 3074 3074 3075 3076 3078 3080 3081 3083 3084 3086 3087 3089 3091 3093 3094 3096 3097 3098 3099 3100 3101 3102 3102 3103 3103 3103 3104 3104
3005 3006 3006 3007 3007 3008 3009 3009 3009 3010 3011 3011 3012 3012 3013 3014 3014 3015 3016 3017 3018 3019 3019 3020 3021 3021 3022 3023 3024 3024 3025 3026 3026 3026 3026 3027 3029 3031 3033 3036 3038 3041 3044 3046 3047 3049 3050 3052 3054 3055 3056 3058 3059 3061 3063 3065 3068 3070 3071 3072 3073 3074 3075 3076 3078 3080 3081 3083 3085 3087 3089 3091 3092 3093 3095 3096 3097 3098 3099 3100 3101 3101 3102 3102 3102 3103 3103
3004 3005 3005 3005 3006 3007 3007 3008 3009 3009 3010 3010 3011 3011 3012 3012 3013 3013 3014 3015 3016 3017 3017 3018 3019 3020 3020 3021 3022 3023 3024 3025 3025 3024 3024 3025 3026 3028 3031 3033 3036 3039 3041 3043 3045 3047 3048 3049 3050 3052 3054 3055 3057 3059 3061 3063 3066 3068 3069 3071 3071 3072 3074 3075 3077 3078 3080 3082 3084 3087 3089 3090 3092 3093 3094 3095 3096 3097 3098 3099 3099 3100 3101 3101 3101 3102 3102
3004 3004 3004 3005 3005 3006 3006 3007 3007 3008 3008 3009 3009 3010 3010 3011 3011 3011 3012 3013 3014 3014 3015 3016 3017 3018 3019 3019 3020 3022 3023 3023 3023 3023 3023 3023 3024 3026 3028 3031 3034 3037 3039 3040 3042 3044 3045 3046 3047 3049 3051 3052 3053 3056 3058 3061 3063 3065 3067 3069 3070 3071 3072 3074 3076 3077 3079 3081 3084 3086 3088 3089 3091 3092 3093 3094 3095 3096 3097 3097 3098 3099 3100 3100 3100 3101 3101
3003 3003 3003 3004 3004 3005 3005 3005 3006 3006 3007 3007 3007 3008 3008 3009 3010 3010 3011 3011 3012 3012 3013 3014 3015 3016 3017 3017 3018 3020 3021 3021 3021 3022 3022 3023 3024 3025 3027 3030 3033 3035 3037 3038 3039 3041 3042 3044 3045 3046 3047 3048 3051 3053 3056 3058 3061 3063 3065 3067 3068 3069 3071 3073 3075 3076 3078 3080 3083 3085 3087 3088 3090 3091 3092 3093 3094 3094 3095 3096 3097 3098 3099 3099 3099 3099 3100
3002 3002 3002 3003 3003 3003 3003 3004 3004 3004 3005 3005 3006 3006 3007 3008 3008 3009 3009 3009 3010 3011 3012 3013 3013 3014 3015 3016 3017 3018 3018 3019 3020 3021 3021 3022 3023 3025 3027 3029 3031 3033 3034 3035 3036 3037 3039 3041 3043 3043 3043 3045 3048 3051 3054 3056 3058 3061 3063 3065 3066 3068 3070 3072 3074 3076 3078 3080 3082 3084 3086 3087 3089 3090 3091 3092 3093 3094 3094 3095 3096 3097 3097 3098 3098 3098 3098
3001 3001 3001 3001 3001 3001 3001 3002 3002 3002 3003 3004 3004 3004 3005 3006 3006 3007 3007 3008 3008 3009 3010 3011 3011 3012 3013 3014 3015 3016 3017 3017 3018 3019 3021 3022 3023 3024 3026 3028 3029 3030 3031 3032 3033 3034 3036 3038 3040 3041 3042 3043 3045 3048 3051 3053 3056 3058 3060 3062 3064 3066 3068 3070 3072 3074 3077 3079 3081 3083 3084 3086 3087 3089 3090 3091 3092 3093 3094 3094 3095 3095 3096 3097 3097 3097 3097
3000 3000 3000 3000 3000 3000 3000 3000 3000 3000 3001 3001 3002 3002 3003 3004 3004 3005 3005 3006 3006 3007 3008 3009 3009 3010 3011 3012 3013 3014 3015 3016 3017 3018 3019 3020 3021 3023 3024 3026 3027 3028 3029 3030 3031 3033 3035 3038 3039 3041 3043 3044 3045 3046 3048 3051 3053 3056 3058 3060 3062 3064 3066 3068 3071 3073 3075 3078 3080 3081 3083 3085 3086 3087 3089 3090 3091 3092 3092 3093 3093 3094 3094 3095 3095 3096 3096
2999 2999 2999 2999 2999 2999 2999 2999 2999 2999 2999 2999 3000 3000 3001 3001 3002 3003 3003 3004 3004 3005 3006 3007 3007 3008 3009 3010 3011 3012 3013 3015 3016 3017 3018 3019 3020 3021 3022 3024 3025 3026 3028 3029 3031 3033 3034 3036 3037 3039 3041 3044 3045 3046 3047 3049 3052 3054 3056 3058 3061 3063 3065 3067 3069 3071 3074 3076 3078 3080 3082 3083 3085 3086 3088 3089 3089 3090 3090 3091 3092 3092 3093 3093 3094 3094 3094
2999 2999 2998 2998 2998 2998 2998 2998 2998 2998 2998 2998 2998 2998 2999 2999 2999 3000 3001 3001 3002 3003 3004 3005 3006 3006 3007 3008 3009 3011 3012 3013 3014 3015 3016 3017 3018 3020 3021 3022 3023 3025 3026 3028 3030 3031 3032 3033 3035 3036 3039 3041 3043 3045 3046 3048 3050 3052 3055 3057 3060 3062 3063 3065 3067 3070 3072 3075 3077 3078 3080 3082 3083 3085 3086 3087 3087 3088 3089 3090 3090 3091 3091 3092 3092 3092 3092
2998 2998 2998 2998 2997 2997 2997 2997 2997 2997 2997 2997 2997 2997 2997 2997 2997 2998 2998 2999 3000 3001 3001 3003 3004 3005 3006 3007 3008 3009 3011 3012 3013 3013 3015 3016 3017 3018 3020 3021 3022 3024 3026 3027 3028 3029 3030 3031 3033 3035 3038 3040 3042 3043 3045 3047 3049 3051 3053 3056 3058 3060 3062 3063 3066 3068 3071 3073 3075 3077 3079 3080 3082 3083 3084 3085 3086 3087 3087 3088 3089 3089 3090 3090 3090 3090 3091
2997 2997 2997 2997 2997 2997 2996 2996 2996 2996 2996 2996 2996 2996 2996 2996 2996 2996 2996 2997 2997 2998 2999 3001 3002 3003 3004 3006 3007 3008 3009 3010 3011 3012 3013 3015 3016 3017 3019 3021 3022 3023 3025 3026 3027 3028 3029 3031 3033 3035 3037 3039 3041 3042 3044 3046 3048 3050 3053 3055 3057 3059 3061 3063 3065 3067 3070 3071 3073 3075 3077 3078 3080 3081 3082 3083 3084 3085 3086 3086 3087 3087 3088 3088 3088 3088 3088
2996 2996 2996 2996 2996 2996 2996 2995 2995 2995 2995 2995 2995 2995 2995 2995 2995 2995 2995 2996 2996 2997 2998 2999 3000 3001 3003 3004 3005 3007 3008 3009 3009 3010 3011 3013 3014 3016 3018 3020 3021 3022 3023 3024 3025 3026 3028 3030 3032 3034 3035 3037 3039 3041 3043 3046 3048 3050 3052 3054 3055 3057 3059 3062 3064 3066 3068 3070 3072 3073 3075 3077 3078 3079 3080 3081 3082 3083 3084 3084 3085 3085 3086 3086 3086 3086 3086
2995 2995 2995 2995 2995 2995 2995 2995 2994 2994 2994 2994 2994 2994 2994 2994 2994 2994 2994 2995 2996 2996 2997 2998 2999 3000 3001 3002 3004 3005 3006 3007 3008 3008 3010 3011 3013 3014 3016 3018 3020 3021 3022 3023 3024 3025 3027 3029 3030 3032 3034 3036 3038 3040 3043 3045 3047 3049 3050 3052 3054 3056 3058 3060 3062 3064 3066 3068 3070 3072 3073 3075 3076 3077 3078 3079 3080 3081 3082 3082 3083 3083 3083 3084 3084 3083 3083
2994 2994 2994 2994 2994 2994 2994 2994 2994 2993 2993 2993 2993 2993 2993 2993 2993 2993 2993 2994 2995 2995 2996 2997 2998 2999 3000 3001 3002 3003 3005 3006 3007 3007 3009 3010 3012 3014 3015 3017 3019 3020 3021 3022 3023 3024 3026 3028 3029 3031 3032 3034 3036 3039 3041 3043 3045 3047 3049 3051 3052 3054 3056 3058 3060 3063 3065 3067 3068 3070 3072 3073 3074 3075 3076 3077 3078 3079 3080 3080 3081 3081 3081 3081 3081 3081 3080
2994 2994 2994 2993 2993 2993 2993 2993 2993 2993 2993 2992 2992 2992 2992 2992 2992 2992 2993 2993 2994 2994 2995 2996 2997 2997 2998 2999 3000 3001 3002 3004 3005 3006 3008 3010 3011 3013 3015 3016 3018 3019 3020 3021 3022 3023 3025 3027 3028 3029 3031 3033 3035 3037 3040 3042 3044 3046 3048 3050 3051 3053 3055 3057 3059 3061 3063 3065 3067 3068 3070 3071 3072 3073 3074 3075 3076 3077 3077 3078 3078 3079 3079 3078 3078 3078 3077
2993 2993 2993 2993 2992 2992 2992 2992 2992 2992 2992 2992 2992 2991 2991 2991 2991 2992 2992 2992 2993 2994 2994 2995 2996 2996 2997 2997 2998 2999 3000 3002 3003 3004 3006 3008 3011 3012 3014 3015 3017 3018 3019 3020 3021 3023 3024 3026 3027 3028 3030 3032 3034 3036 3039 3041 3043 3045 3047 3048 3050 3052 3054 3056 3058 3060 3061 3063 3064 3066 3067 3069 3070 3071 3072 3073 3074 3074 3075 3075 3075 3075 3075 3075 3075 3075 3074
2993 2993 2992 2992 2992 2991 2991 2991 2991 2991 2991 2991 2991 2991 2991 2991 2991 2991 2991 2992 2992 2993 2994 2995 2995 2995 2996 2997 2997 2998 2999 3001 3002 3004 3006 3008 3010 3011 3012 3014 3015 3016 3018 3019 3020 3022 3024 3025 3026 3028 3029 3031 3033 3036 3038 3040 3042 3044 3046 3048 3049 3051 3053 3055 3056 3058 3059 3061 3062 3064 3065 3066 3068 3069 3070 3071 3071 3072 3072 3072 3072 3072 3072 3072 3072 3072 3071
2993 2993 2992 2992 2991 2991 2990 2990 2989 2989 2989 2989 2989 2990 2990 2990 2990 2990 2991 2991 2992 2992 2993 2994 2994 2995 2995 2996 2997 2997 2999 3000 3002 3004 3006 3008 3009 3010 3011 3012 3014 3015 3017 3018 3020 3021 3023 3024 3026 3027 3029 3031 3033 3035 3037 3039 3041 3043 3045 3047 3049 3050 3052 3053 3055 3056 3058 3059 3060 3062 3063 3064 3065 3066 3067 3068 3068 3069 3069 3069 3069 3069 3069 3069 3069 3069 3068
2993 2992 2992 2991 2991 2990 2990 2989 2989 2988 2988 2988 2988 2988 2989 2989 2989 2989 2990 2991 2991 2991 2992 2993 2993 2994 2994 2995 2996 2997 2999 3000 3002 3004 3006 3007 3008 3009 3010 3012 3013 3015 3017 3018 3020 3021 3023 3024 3026 3027 3029 3030 3032 3034 3036 3038 3040 3042 3044 3046 3048 3049 3051 3052 3053 3055 3056 3057 3059 3060 3061 3062 3063 3063 3064 3065 3065 3066 3066 3066 3066 3067 3067 3066 3066 3066 3065
2992 2992 2991 2991 2990 2990 2989 2989 2988 2988 2987 2987 2987 2987 2987 2988 2988 2989 2989 2990 2990 2990 2991 2992 2993 2993 2994 2995 2996 2997 2999 3001 3002 3004 3005 3006 3008 3009 3011 3013 3014 3016 3017 3019 3020 3021 3023 3024 3026 3026 3028 3029 3032 3034 3036 3038 3040 3042 3044 3045 3047 3048 3049 3051 3052 3053 3054 3055 3057 3058 3059 3059 3060 3061 3061 3062 3062 3063 3064 3064 3064 3064 3064 3064 3063 3063 3062
2992 2991 2991 2990 2990 2989 2989 2988 2987 2987 2987 2987 2986 2986 2987 2987 2988 2988 2988 2989 2990 2990 2991 2992 2993 2994 2994 2996 2997 2998 2999 3001 3003 3004 3005 3007 3009 3011 3013 3014 3016 3017 3018 3020 3021 3022 3023 3024 3025 3026 3027 3029 3032 3034 3036 3037 3039 3041 3043 3044 3046 3047 3048 3049 3050 3051 3052 3053 3054 3055 3056 3056 3057 3058 3058 3059 3060 3061 3061 3061 3061 3061 3061 3061 3060 3060 3059